QPF
0.00 0.00 0.00 0.00 0.00 0.00 0.00 0.00 0.00 0.00 0.00 0.00 0.00 0.00 0.00 0.00 0.00 0.00 0.00 0.00 0.00 0.00 0.00 0.00 0.00 0.00 0.00 0.00 0.00 0.00 0.00 0.00 0.00 0.00 0.00 0.00 0.00 0.00 0.00 0.00 0.00 0.00 0.00 0.00 0.00
0.00 0.00 0.00 0.00 0.00 0.00 0.00 0.00 0.00 0.00 0.00 0.00 0.00 0.00 0.00 0.00 0.00 0.00 0.00 0.00 0.00 0.00 0.00 0.00 0.00 0.00 0.00 0.00 0.00 0.00 0.00 0.00 0.00 0.00 0.00 0.00 0.00 0.00 0.00 0.00 0.00 0.00 0.00 0.00 0.00
0.00 0.00 0.00 0.00 0.00 0.00 0.00 0.00 0.00 0.00 0.00 0.00 0.00 0.00 0.00 0.00 0.00 0.00 0.00 0.00 0.00 0.00 0.00 0.00 0.00 0.00 0.00 0.00 0.00 0.00 0.00 0.00 0.00 0.00 0.00 0.00 0.00 0.00 0.00 0.00 0.00 0.00 0.00 0.00 0.00
0.00 0.00 0.00 0.00 0.00 0.00 0.00 0.00 0.00 0.00 0.00 0.00 0.00 0.00 0.00 0.00 0.00 0.00 0.00 0.00 0.00 0.00 0.00 0.00 0.00 0.00 0.00 0.00 0.00 0.00 0.00 0.00 0.00 0.00 0.00 0.00 0.00 0.00 0.00 0.00 0.00 0.00 0.00 0.00 0.00
0.00 0.00 0.00 0.00 0.00 0.00 0.00 0.00 0.00 0.00 0.00 0.00 0.00 0.00 0.00 0.00 0.00 0.00 0.00 0.00 0.00 0.00 0.00 0.00 0.00 0.00 0.00 0.00 0.00 0.00 0.00 0.00 0.00 0.00 0.00 0.00 0.00 0.00 0.00 0.00 0.00 0.00 0.00 0.00 0.00
0.00 0.00 0.00 0.00 0.00 0.00 0.00 0.00 0.00 0.00 0.00 0.00 0.00 0.00 0.00 0.00 0.00 0.00 0.00 0.00 0.00 0.00 0.00 0.00 0.00 0.00 0.00 0.00 0.00 0.00 0.00 0.00 0.00 0.00 0.00 0.00 0.00 0.00 0.00 0.00 0.00 0.00 0.00 0.00 0.00
0.00 0.00 0.00 0.00 0.00 0.00 0.00 0.00 0.00 0.00 0.00 0.00 0.00 0.00 0.00 0.00 0.00 0.00 0.00 0.00 0.00 0.00 0.00 0.00 0.00 0.00 0.00 0.00 0.00 0.00 0.00 0.00 0.00 0.00 0.00 0.00 0.00 0.00 0.00 0.00 0.00 0.00 0.00 0.00 0.00
0.00 0.00 0.00 0.00 0.00 0.00 0.00 0.00 0.00 0.00 0.00 0.00 0.00 0.00 0.00 0.00 0.00 0.00 0.00 0.00 0.00 0.00 0.00 0.00 0.00 0.00 0.00 0.00 0.00 0.00 0.00 0.00 0.00 0.00 0.00 0.00 0.00 0.00 0.00 0.00 0.00 0.00 0.00 0.00 0.00
0.00 0.00 0.00 0.00 0.00 0.00 0.00 0.00 0.00 0.00 0.00 0.00 0.00 0.00 0.00 0.00 0.00 0.00 0.00 0.00 0.00 0.00 0.00 0.00 0.00 0.00 0.00 0.00 0.00 0.00 0.00 0.00 0.00 0.00 0.00 0.00 0.00 0.00 0.00 0.00 0.00 0.00 0.00 0.00 0.00
0.00 0.00 0.00 0.00 0.00 0.00 0.00 0.00 0.00 0.00 0.00 0.00 0.00 0.00 0.00 0.00 0.00 0.00 0.00 0.00 0.00 0.00 0.00 0.00 0.00 0.00 0.00 0.00 0.00 0.00 0.00 0.00 0.00 0.00 0.00 0.00 0.00 0.00 0.00 0.00 0.00 0.00 0.00 0.00 0.00
0.00 0.00 0.00 0.00 0.00 0.00 0.00 0.00 0.00 0.00 0.00 0.00 0.00 0.00 0.00 0.00 0.00 0.00 0.00 0.00 0.00 0.00 0.00 0.00 0.00 0.00 0.00 0.00 0.00 0.00 0.00 0.00 0.00 0.00 0.00 0.00 0.00 0.00 0.00 0.00 0.00 0.00 0.00 0.00 0.00
0.00 0.00 0.00 0.00 0.00 0.00 0.00 0.00 0.00 0.00 0.00 0.00 0.00 0.00 0.00 0.00 0.00 0.00 0.00 0.00 0.00 0.00 0.00 0.00 0.00 0.00 0.00 0.00 0.00 0.00 0.00 0.00 0.00 0.00 0.00 0.00 0.00 0.00 0.00 0.00 0.00 0.00 0.00 0.00 0.00
0.00 0.00 0.00 0.00 0.00 0.00 0.00 0.00 0.00 0.00 0.00 0.00 0.00 0.00 0.00 0.00 0.00 0.00 0.00 0.00 0.00 0.00 0.00 0.00 0.00 0.00 0.00 0.00 0.00 0.00 0.00 0.00 0.00 0.00 0.00 0.00 0.00 0.00 0.00 0.00 0.00 0.00 0.00 0.00 0.00
0.00 0.00 0.00 0.00 0.00 0.00 0.00 0.00 0.00 0.00 0.00 0.00 0.00 0.00 0.00 0.00 0.00 0.00 0.00 0.00 0.00 0.00 0.00 0.00 0.00 0.00 0.00 0.00 0.00 0.00 0.00 0.00 0.00 0.00 0.00 0.00 0.00 0.00 0.00 0.00 0.00 0.00 0.00 0.00 0.00
0.00 0.00 0.00 0.00 0.00 0.00 0.00 0.00 0.00 0.00 0.00 0.00 0.00 0.00 0.00 0.00 0.00 0.00 0.00 0.00 0.00 0.00 0.00 0.00 0.00 0.00 0.00 0.00 0.00 0.00 0.00 0.00 0.00 0.00 0.00 0.00 0.00 0.00 0.00 0.00 0.00 0.00 0.00 0.00 0.00
0.00 0.00 0.00 0.00 0.00 0.00 0.00 0.00 0.00 0.00 0.00 0.00 0.00 0.00 0.00 0.00 0.00 0.00 0.00 0.00 0.00 0.00 0.00 0.00 0.00 0.00 0.00 0.00 0.00 0.00 0.00 0.00 0.00 0.00 0.00 0.00 0.00 0.00 0.00 0.00 0.00 0.00 0.00 0.00 0.00
0.00 0.00 0.00 0.00 0.00 0.00 0.00 0.00 0.00 0.00 0.00 0.00 0.00 0.00 0.00 0.00 0.00 0.00 0.00 0.00 0.00 0.00 0.00 0.00 0.00 0.00 0.00 0.00 0.00 0.00 0.00 0.00 0.00 0.00 0.00 0.00 0.00 0.00 0.00 0.00 0.00 0.00 0.00 0.00 0.00
0.00 0.00 0.00 0.00 0.00 0.00 0.00 0.00 0.00 0.00 0.00 0.00 0.00 0.00 0.00 0.00 0.00 0.00 0.00 0.00 0.00 0.00 0.00 0.00 0.00 0.00 0.00 0.00 0.00 0.00 0.00 0.00 0.00 0.00 0.00 0.00 0.00 0.00 0.00 0.00 0.00 0.00 0.00 0.00 0.00
0.00 0.00 0.00 0.00 0.00 0.00 0.00 0.00 0.00 0.00 0.00 0.00 0.00 0.00 0.00 0.00 0.00 0.00 0.00 0.00 0.00 0.00 0.00 0.00 0.00 0.00 0.00 0.00 0.00 0.00 0.00 0.00 0.00 0.00 0.00 0.00 0.00 0.00 0.00 0.00 0.00 0.00 0.00 0.00 0.00
0.00 0.00 0.00 0.00 0.00 0.00 0.00 0.00 0.00 0.00 0.00 0.00 0.00 0.00 0.00 0.00 0.00 0.00 0.00 0.00 0.00 0.00 0.00 0.00 0.00 0.00 0.00 0.00 0.00 0.00 0.00 0.00 0.00 0.00 0.00 0.00 0.00 0.00 0.00 0.00 0.00 0.00 0.00 0.00 0.00
0.00 0.00 0.00 0.00 0.00 0.00 0.00 0.00 0.00 0.00 0.00 0.00 0.00 0.00 0.00 0.00 0.00 0.00 0.00 0.00 0.00 0.00 0.00 0.00 0.00 0.00 0.00 0.00 0.00 0.00 0.00 0.00 0.00 0.00 0.00 0.00 0.00 0.00 0.00 0.00 0.00 0.00 0.00 0.00 0.00
0.00 0.00 0.00 0.00 0.00 0.00 0.00 0.00 0.00 0.00 0.00 0.00 0.00 0.00 0.00 0.00 0.00 0.00 0.00 0.00 0.00 0.00 0.00 0.00 0.00 0.00 0.00 0.00 0.00 0.00 0.00 0.00 0.00 0.00 0.00 0.00 0.00 0.00 0.00 0.00 0.00 0.00 0.00 0.00 0.00
0.00 0.00 0.00 0.00 0.00 0.00 0.00 0.00 0.00 0.00 0.00 0.00 0.00 0.00 0.00 0.00 0.00 0.00 0.00 0.00 0.00 0.00 0.00 0.00 0.00 0.00 0.00 0.00 0.00 0.00 0.00 0.00 0.00 0.00 0.00 0.00 0.00 0.00 0.00 0.00 0.00 0.00 0.00 0.00 0.00
0.00 0.00 0.00 0.00 0.00 0.00 0.00 0.00 0.00 0.00 0.00 0.00 0.00 0.00 0.00 0.00 0.00 0.00 0.00 0.00 0.00 0.00 0.00 0.00 0.00 0.00 0.00 0.00 0.00 0.00 0.00 0.00 0.00 0.00 0.00 0.00 0.00 0.00 0.00 0.00 0.00 0.00 0.00 0.00 0.00
0.00 0.00 0.00 0.00 0.00 0.00 0.00 0.00 0.00 0.00 0.00 0.00 0.00 0.00 0.00 0.00 0.00 0.00 0.00 0.00 0.00 0.00 0.00 0.00 0.00 0.00 0.00 0.00 0.00 0.00 0.00 0.00 0.00 0.00 0.00 0.00 0.00 0.00 0.00 0.00 0.00 0.00 0.00 0.00 0.00
0.00 0.00 0.00 0.00 0.00 0.00 0.00 0.00 0.00 0.00 0.00 0.00 0.00 0.00 0.00 0.00 0.00 0.00 0.00 0.00 0.00 0.00 0.00 0.00 0.00 0.00 0.00 0.00 0.00 0.00 0.00 0.00 0.00 0.00 0.00 0.00 0.00 0.00 0.00 0.00 0.00 0.00 0.00 0.00 0.00
0.00 0.01 0.01 0.00 0.00 0.00 0.00 0.00 0.00 0.00 0.00 0.00 0.00 0.00 0.00 0.00 0.00 0.00 0.00 0.00 0.00 0.00 0.00 0.00 0.00 0.00 0.00 0.00 0.00 0.00 0.00 0.00 0.00 0.00 0.00 0.00 0.00 0.00 0.00 0.00 0.00 0.00 0.00 0.00 0.00
MSLP
1018.62 1018.20 1017.74 1017.26 1016.72 1016.18 1015.61 1015.16 1014.79 1014.52 1014.16 1013.70 1013.11 1012.66 1012.16 1011.75 1011.20 1010.70 1009.34 1006.63 1007.01 1007.31 1007.63 1008.14 1008.36 1008.52 1008.89 1009.78 1010.15 1010.61 1011.06 1010.44 1008.55 1007.47 1006.80 1006.81 1007.01 1007.60 1007.90 1008.45 1008.91 1009.20 1009.77 1010.72 1012.02
1018.65 1018.21 1017.75 1017.20 1016.63 1016.08 1015.52 1014.98 1014.51 1014.18 1013.92 1013.54 1012.96 1012.46 1012.15 1011.68 1011.01 1009.08 1004.46 1005.10 1005.69 1006.61 1007.35 1007.70 1008.18 1008.68 1009.22 1009.80 1010.28 1010.42 1010.12 1008.19 1006.71 1006.06 1005.89 1006.37 1006.71 1007.22 1007.94 1008.79 1009.19 1009.54 1010.03 1011.11 1011.99
1018.60 1018.03 1017.53 1017.07 1016.52 1015.96 1015.35 1014.72 1014.17 1013.82 1013.56 1013.24 1012.75 1012.19 1012.04 1011.75 1010.65 1005.70 1003.64 1004.33 1005.12 1005.72 1006.40 1007.01 1007.78 1008.33 1008.94 1009.39 1009.55 1009.15 1008.26 1006.62 1005.72 1005.11 1005.15 1005.81 1006.52 1006.98 1007.78 1008.74 1008.60 1008.94 1009.99 1011.13 1011.97
1018.52 1017.96 1017.39 1016.80 1016.25 1015.72 1015.11 1014.47 1013.86 1013.35 1013.07 1012.86 1012.50 1011.91 1011.70 1011.67 1008.61 1003.83 1003.46 1003.44 1004.61 1005.45 1006.22 1006.99 1007.82 1008.21 1008.19 1008.50 1008.18 1008.21 1006.60 1006.12 1005.02 1004.60 1004.88 1005.62 1006.24 1006.87 1006.90 1006.73 1007.71 1008.12 1008.91 1010.33 1011.66
1018.42 1017.74 1017.09 1016.44 1015.78 1015.14 1014.49 1013.92 1013.39 1012.84 1012.39 1012.34 1012.11 1011.77 1011.41 1010.46 1006.18 1003.16 1003.57 1004.22 1005.11 1005.37 1005.67 1006.26 1007.17 1007.25 1007.08 1007.02 1007.55 1007.33 1005.81 1005.06 1004.40 1004.57 1004.66 1005.21 1005.59 1006.42 1006.75 1006.66 1008.06 1009.17 1009.78 1010.20 1011.13
1018.30 1017.55 1016.68 1015.88 1015.22 1014.50 1013.77 1013.07 1012.47 1012.08 1011.73 1011.56 1011.60 1011.58 1011.26 1008.59 1003.66 1003.13 1003.86 1004.65 1005.00 1005.25 1005.59 1005.92 1006.37 1006.21 1006.11 1006.32 1006.36 1005.52 1005.39 1004.84 1004.14 1004.26 1004.39 1005.07 1005.25 1006.09 1006.93 1007.17 1008.02 1008.97 1009.54 1010.19 1010.67
1018.05 1017.31 1016.46 1015.57 1014.68 1013.73 1012.75 1012.04 1011.50 1010.82 1010.55 1010.42 1010.80 1011.07 1010.17 1005.13 1003.07 1002.92 1003.53 1004.10 1004.42 1004.80 1005.22 1005.20 1005.29 1006.02 1005.76 1005.92 1005.38 1005.25 1005.45 1005.16 1004.29 1003.84 1003.88 1004.60 1005.59 1005.45 1006.15 1007.18 1007.88 1008.58 1009.29 1009.83 1010.29
1017.78 1016.97 1016.15 1015.24 1014.32 1013.27 1011.95 1010.86 1010.25 1009.58 1008.84 1008.87 1009.85 1010.33 1008.12 1003.61 1003.39 1003.41 1003.53 1003.87 1003.99 1004.37 1004.36 1004.39 1004.94 1005.49 1005.61 1005.33 1005.08 1005.07 1005.13 1004.95 1003.74 1003.41 1003.12 1003.94 1004.67 1004.99 1005.99 1007.03 1007.81 1008.33 1009.09 1009.64 1009.83
1017.44 1016.69 1015.83 1014.86 1013.82 1012.82 1011.35 1010.03 1009.37 1008.82 1008.43 1008.88 1009.63 1009.55 1005.90 1003.05 1003.19 1002.03 1002.52 1002.85 1003.25 1004.09 1004.41 1004.57 1005.25 1005.54 1005.71 1005.91 1005.95 1005.48 1005.10 1004.64 1003.90 1002.85 1003.05 1003.32 1004.09 1004.61 1005.61 1006.54 1007.49 1008.04 1008.65 1009.18 1009.57
1017.37 1016.58 1015.64 1014.57 1013.35 1012.10 1010.54 1008.91 1008.70 1008.86 1008.97 1009.01 1008.67 1008.84 1004.51 1002.30 1001.45 1001.24 1001.62 1002.14 1002.67 1003.87 1004.79 1004.96 1005.21 1005.42 1005.62 1005.88 1005.62 1005.63 1005.20 1004.40 1003.47 1002.83 1002.54 1003.13 1003.69 1004.52 1005.30 1006.06 1006.72 1007.32 1008.03 1008.65 1008.94
1017.39 1016.62 1015.69 1014.58 1013.16 1011.94 1010.40 1009.34 1009.08 1009.03 1008.45 1007.29 1006.41 1005.09 1003.11 1001.73 1000.87 1000.62 1000.91 1001.91 1002.23 1003.38 1004.55 1004.60 1005.13 1004.55 1004.75 1004.96 1004.96 1005.08 1004.83 1004.48 1003.59 1002.62 1002.86 1003.14 1003.88 1004.40 1004.82 1005.89 1006.58 1006.98 1007.46 1007.82 1008.01
1017.07 1016.23 1015.34 1014.21 1012.59 1011.67 1011.27 1011.07 1011.76 1012.12 1009.36 1006.03 1004.43 1003.45 1001.88 1001.94 1001.94 1000.62 1000.51 1001.28 1002.19 1003.07 1003.82 1004.53 1003.98 1004.25 1004.42 1004.71 1004.64 1004.63 1004.73 1004.30 1003.71 1003.00 1003.19 1003.40 1004.05 1004.20 1004.59 1004.34 1004.84 1005.67 1006.50 1006.66 1007.06
1017.02 1016.14 1015.31 1014.09 1012.52 1011.91 1012.43 1011.51 1011.36 1011.35 1009.94 1004.08 1002.00 1000.92 1000.23 1001.17 1000.89 1000.00 1000.07 1000.28 1001.16 1002.46 1002.79 1003.23 1003.15 1003.55 1003.91 1004.01 1004.20 1003.90 1003.95 1003.96 1003.58 1003.26 1003.39 1003.78 1004.56 1004.93 1004.97 1005.20 1005.49 1005.67 1005.65 1005.94 1005.82
1017.10 1016.17 1015.30 1014.77 1012.83 1013.29 1011.90 1011.05 1011.02 1010.83 1008.96 1003.28 1000.86 999.32 999.20 999.69 999.80 998.67 998.87 999.36 1000.34 1001.16 1002.29 1002.70 1002.36 1002.76 1003.09 1003.19 1003.46 1003.42 1003.07 1003.61 1003.69 1004.06 1004.24 1003.96 1004.53 1004.48 1004.37 1004.55 1004.62 1004.75 1004.93 1005.07 1005.29
1017.20 1016.18 1015.45 1015.36 1015.17 1014.23 1011.89 1011.00 1010.52 1010.24 1007.41 1000.98 999.61 998.55 998.68 998.68 997.75 997.50 997.73 998.63 999.20 999.90 1001.16 1000.98 1001.06 1001.62 1001.90 1001.80 1002.70 1002.67 1003.11 1003.68 1004.06 1004.41 1004.59 1004.22 1004.63 1003.11 1003.45 1003.72 1003.38 1003.26 1003.33 1003.65 1004.14
1016.93 1016.03 1015.34 1015.19 1015.27 1013.11 1012.26 1011.29 1010.47 1010.06 1005.50 1000.75 999.31 999.17 999.53 998.80 997.69 997.52 997.61 998.11 998.74 999.91 1000.20 1000.27 1000.11 1000.45 1000.41 1001.23 1001.85 1002.59 1003.17 1004.05 1004.48 1005.07 1004.91 1004.02 1004.15 1002.76 1002.34 1001.49 1001.58 1001.86 1001.84 1001.92 1002.68
1016.86 1015.78 1014.73 1014.87 1013.94 1012.58 1012.44 1011.76 1011.16 1008.77 1003.89 1002.32 1001.34 1000.89 1000.16 999.11 998.32 997.57 997.76 997.94 998.04 999.48 999.92 1000.14 1000.05 999.69 999.62 1000.80 1001.50 1002.36 1003.95 1005.22 1005.57 1005.42 1003.70 1003.19 1003.36 1001.16 1000.11 999.87 999.60 999.84 999.89 1000.23 1000.83
1016.78 1015.12 1013.82 1013.47 1012.91 1013.00 1012.93 1012.55 1010.66 1006.65 1005.00 1003.98 1003.06 1001.68 1001.11 1000.33 999.43 998.47 997.95 998.07 998.14 998.50 999.42 999.85 999.95 999.21 998.72 999.11 1000.18 1001.64 1002.64 1003.87 1004.69 1004.88 1003.91 1002.93 1000.95 998.09 998.47 998.34 998.36 998.24 998.11 998.65 999.42
1016.82 1014.92 1014.80 1013.35 1012.66 1013.12 1013.16 1012.30 1009.22 1007.31 1006.24 1005.35 1003.86 1003.10 1002.80 1002.36 1002.00 1000.37 999.77 998.77 998.21 998.39 999.11 999.76 999.25 997.85 997.53 997.97 998.95 1000.25 1001.31 1002.23 1003.82 1004.46 1003.81 1001.96 999.84 998.56 997.76 997.53 997.60 997.73 998.08 998.01 998.02
1017.58 1016.25 1015.04 1013.12 1012.96 1013.42 1013.69 1011.80 1009.76 1007.80 1006.97 1006.29 1005.78 1005.32 1004.95 1004.35 1003.58 1002.80 1001.79 1000.83 999.93 999.05 998.76 998.94 999.10 997.50 996.77 997.30 997.82 998.32 1000.07 1001.93 1003.26 1003.48 1002.98 1001.12 999.34 998.08 997.43 997.40 996.97 997.01 997.11 996.89 997.20
1017.71 1016.84 1013.85 1013.14 1013.08 1013.82 1013.81 1012.48 1010.34 1008.24 1008.05 1007.51 1006.95 1006.76 1006.37 1006.15 1005.58 1004.88 1003.67 1002.45 1001.95 1001.04 1000.28 999.82 999.46 998.17 997.08 996.76 997.13 998.14 998.83 999.90 1000.78 1001.26 1001.29 1000.67 997.93 997.02 996.67 996.21 996.31 996.22 995.83 995.49 995.65
1018.39 1017.55 1013.80 1013.53 1014.33 1014.82 1014.09 1012.95 1010.93 1009.51 1008.46 1008.29 1007.63 1007.51 1007.54 1007.31 1006.87 1006.24 1005.09 1004.33 1004.06 1003.71 1002.74 1001.83 1000.50 999.30 997.67 996.42 996.11 996.75 997.41 998.54 999.45 1000.16 999.81 998.89 997.12 995.52 994.97 995.42 995.52 995.17 994.92 994.43 994.43
1018.84 1017.87 1014.92 1014.57 1016.00 1016.04 1014.77 1013.10 1012.07 1010.83 1009.97 1009.39 1008.87 1008.71 1008.70 1008.58 1008.22 1007.37 1006.52 1005.72 1005.57 1005.21 1004.93 1004.12 1002.16 1000.85 998.89 997.54 996.65 996.34 996.60 996.90 997.56 998.36 997.42 997.94 996.59 995.22 995.37 995.18 995.26 995.16 994.72 994.54 994.18
1019.31 1018.73 1017.13 1016.18 1016.46 1016.52 1015.75 1014.45 1013.21 1012.19 1011.05 1010.59 1010.01 1009.54 1009.75 1009.71 1009.40 1008.69 1007.62 1006.67 1006.61 1006.15 1005.74 1005.30 1004.14 1002.44 999.99 998.25 996.75 996.42 995.68 995.69 996.21 996.33 996.08 995.12 996.15 995.39 994.98 994.73 994.59 994.54 994.38 993.99 993.51
1019.31 1019.04 1018.74 1017.74 1017.08 1016.94 1016.14 1014.95 1014.10 1013.38 1012.69 1011.57 1010.91 1010.73 1010.95 1010.76 1010.40 1009.83 1009.10 1008.00 1007.37 1007.05 1006.87 1006.86 1005.94 1003.69 1001.38 999.73 997.46 996.17 994.71 994.41 994.17 993.94 994.34 994.88 995.14 994.92 994.52 994.38 994.16 993.79 994.04 994.21 994.21
1019.10 1019.04 1018.61 1018.05 1017.36 1016.94 1016.08 1015.43 1014.75 1014.22 1013.93 1012.82 1012.22 1011.71 1011.45 1011.32 1011.02 1010.70 1010.30 1009.79 1009.02 1007.98 1007.84 1007.64 1006.65 1004.65 1002.21 999.69 997.65 995.69 994.03 992.37 991.74 992.85 993.44 993.94 993.97 993.44 993.33 993.41 993.54 993.44 993.47 993.58 993.53
1018.51 1018.42 1018.48 1017.89 1017.23 1016.91 1016.15 1015.63 1015.33 1014.92 1013.82 1013.37 1012.62 1011.67 1011.14 1010.72 1010.41 1010.30 1010.18 1009.89 1009.57 1009.17 1008.64 1008.52 1007.40 1005.62 1002.90 1000.21 998.13 995.13 990.01 991.85 991.68 991.63 992.06 992.59 993.14 992.77 992.87 992.99 992.93 992.58 992.66 992.71 992.45
Thickness
5731 5733 5735 5738 5741 5744 5748 5750 5752 5753 5754 5757 5761 5765 5770 5774 5778 5781 5786 5809 5807 5806 5807 5804 5802 5801 5800 5785 5787 5779 5748 5742 5771 5777 5786 5801 5792 5800 5803 5790 5794 5796 5789 5790 5784
5729 5732 5734 5737 5741 5744 5748 5751 5753 5755 5756 5758 5761 5765 5767 5771 5776 5784 5831 5824 5820 5812 5803 5798 5791 5792 5784 5781 5776 5764 5751 5773 5800 5808 5799 5802 5797 5795 5788 5782 5783 5785 5792 5787 5783
5727 5731 5734 5737 5740 5743 5747 5751 5754 5756 5758 5759 5762 5766 5765 5768 5774 5807 5835 5829 5823 5819 5811 5805 5799 5792 5781 5781 5778 5779 5771 5797 5805 5815 5819 5806 5799 5804 5785 5772 5787 5785 5784 5782 5778
5725 5729 5732 5736 5740 5743 5747 5751 5756 5759 5760 5761 5763 5767 5767 5765 5767 5826 5834 5835 5826 5819 5808 5799 5791 5780 5783 5777 5791 5776 5800 5801 5811 5819 5817 5800 5808 5798 5800 5802 5805 5804 5800 5788 5777
5722 5727 5732 5736 5741 5745 5749 5753 5757 5762 5765 5764 5765 5767 5769 5769 5792 5833 5831 5825 5820 5816 5805 5797 5788 5786 5785 5791 5790 5786 5804 5813 5818 5816 5815 5814 5805 5804 5800 5813 5807 5797 5791 5788 5782
5719 5724 5731 5737 5742 5747 5752 5757 5761 5765 5768 5769 5768 5767 5767 5769 5829 5832 5827 5818 5814 5811 5804 5801 5795 5800 5798 5795 5794 5808 5806 5811 5818 5817 5817 5804 5805 5807 5803 5811 5802 5796 5789 5788 5786
5717 5722 5728 5735 5741 5749 5756 5761 5766 5772 5775 5775 5772 5769 5770 5801 5832 5832 5826 5819 5818 5812 5802 5810 5808 5797 5799 5794 5809 5810 5796 5800 5810 5816 5810 5817 5791 5800 5812 5807 5799 5796 5792 5791 5789
5714 5719 5725 5732 5739 5747 5757 5766 5772 5778 5784 5784 5777 5772 5777 5827 5827 5824 5823 5816 5818 5817 5815 5816 5810 5800 5799 5806 5804 5798 5793 5776 5809 5815 5824 5814 5779 5811 5812 5803 5796 5797 5793 5791 5794
5712 5716 5723 5730 5738 5746 5755 5768 5774 5778 5783 5780 5774 5771 5785 5829 5821 5834 5828 5818 5817 5810 5810 5811 5800 5789 5793 5776 5767 5773 5765 5776 5791 5819 5816 5812 5790 5812 5814 5806 5798 5798 5796 5793 5794
5706 5712 5718 5726 5737 5746 5757 5771 5773 5773 5773 5773 5777 5769 5801 5816 5832 5836 5832 5827 5814 5802 5791 5787 5782 5769 5767 5761 5747 5761 5772 5781 5787 5810 5819 5804 5799 5810 5813 5808 5803 5802 5801 5797 5797
5699 5704 5711 5718 5731 5741 5753 5762 5763 5764 5771 5778 5786 5793 5807 5823 5837 5833 5831 5819 5814 5797 5769 5780 5763 5762 5774 5780 5787 5784 5783 5778 5796 5816 5812 5807 5795 5804 5814 5808 5799 5801 5802 5804 5805
5693 5699 5705 5712 5726 5734 5738 5742 5732 5729 5747 5781 5793 5802 5814 5812 5800 5820 5832 5807 5797 5777 5780 5769 5763 5779 5786 5782 5784 5782 5774 5773 5793 5812 5802 5800 5790 5804 5810 5817 5815 5809 5806 5813 5814
5682 5689 5696 5704 5717 5722 5715 5726 5727 5726 5730 5790 5803 5810 5814 5806 5803 5810 5821 5813 5797 5776 5778 5771 5780 5788 5781 5778 5775 5778 5773 5778 5783 5802 5803 5793 5779 5787 5803 5807 5808 5811 5814 5817 5822
5668 5676 5684 5689 5704 5697 5712 5718 5719 5720 5718 5776 5794 5809 5814 5811 5799 5828 5830 5817 5798 5787 5778 5773 5791 5784 5774 5771 5778 5758 5797 5793 5789 5773 5750 5791 5741 5776 5796 5798 5805 5811 5812 5817 5822
5652 5660 5668 5670 5670 5677 5701 5707 5713 5713 5696 5793 5796 5818 5809 5803 5821 5819 5833 5813 5794 5793 5783 5782 5787 5782 5775 5787 5783 5781 5797 5788 5789 5774 5769 5773 5751 5778 5798 5789 5804 5817 5822 5826 5831
5637 5644 5649 5653 5654 5675 5682 5691 5700 5691 5689 5764 5787 5781 5783 5795 5806 5814 5810 5816 5809 5786 5788 5791 5804 5794 5796 5795 5794 5797 5786 5776 5774 5755 5728 5770 5760 5781 5778 5810 5820 5829 5835 5840 5840
5619 5628 5634 5634 5644 5661 5665 5670 5665 5665 5735 5740 5737 5753 5763 5778 5789 5799 5791 5783 5777 5752 5760 5779 5782 5797 5803 5777 5785 5777 5748 5714 5712 5713 5734 5777 5752 5796 5815 5827 5840 5842 5847 5855 5855
5600 5613 5619 5624 5635 5637 5638 5645 5645 5696 5702 5717 5719 5736 5747 5752 5769 5771 5782 5775 5785 5779 5766 5748 5743 5783 5803 5793 5779 5766 5761 5708 5694 5702 5737 5764 5755 5815 5845 5851 5854 5859 5865 5866 5864
5576 5590 5588 5607 5612 5613 5611 5613 5647 5663 5678 5685 5703 5707 5707 5723 5728 5741 5746 5771 5783 5778 5758 5744 5749 5800 5806 5807 5797 5772 5750 5777 5739 5736 5726 5748 5783 5816 5840 5843 5850 5849 5853 5862 5871
5540 5546 5557 5580 5584 5581 5576 5597 5622 5644 5653 5660 5662 5673 5670 5686 5699 5706 5713 5738 5749 5775 5780 5764 5744 5785 5801 5802 5795 5787 5783 5747 5713 5714 5717 5740 5763 5779 5815 5835 5845 5848 5854 5866 5873
5505 5506 5539 5548 5552 5545 5543 5557 5598 5618 5622 5626 5634 5642 5653 5656 5666 5678 5691 5711 5722 5734 5747 5753 5746 5770 5783 5768 5776 5768 5766 5763 5759 5737 5739 5720 5767 5810 5822 5840 5845 5853 5865 5875 5879
5463 5463 5505 5508 5499 5496 5518 5541 5568 5580 5589 5594 5612 5620 5626 5632 5637 5655 5671 5683 5692 5698 5702 5722 5723 5744 5760 5786 5801 5793 5783 5771 5741 5736 5743 5767 5764 5835 5846 5846 5852 5861 5870 5882 5888
5435 5433 5459 5465 5458 5457 5483 5514 5526 5540 5551 5559 5572 5583 5593 5603 5613 5624 5642 5662 5669 5671 5672 5688 5695 5713 5733 5756 5766 5760 5771 5786 5781 5761 5769 5740 5756 5828 5836 5840 5843 5850 5861 5870 5883
5418 5422 5423 5434 5431 5434 5437 5465 5482 5502 5517 5528 5539 5555 5561 5568 5582 5592 5610 5637 5645 5655 5666 5667 5669 5692 5721 5740 5759 5747 5769 5780 5777 5755 5770 5783 5782 5816 5830 5832 5843 5847 5860 5866 5877
5405 5412 5404 5404 5411 5410 5426 5441 5448 5457 5473 5496 5508 5517 5523 5534 5550 5561 5583 5598 5618 5633 5636 5636 5640 5670 5697 5716 5738 5748 5769 5779 5767 5787 5770 5793 5781 5806 5823 5832 5842 5853 5855 5857 5859
5405 5403 5407 5405 5408 5407 5410 5430 5434 5440 5445 5463 5466 5484 5496 5500 5520 5532 5549 5564 5579 5602 5610 5612 5627 5647 5672 5710 5727 5737 5760 5787 5795 5789 5783 5781 5781 5818 5838 5837 5838 5845 5850 5852 5858
5405 5403 5400 5407 5410 5407 5408 5418 5423 5431 5447 5446 5459 5473 5478 5491 5504 5517 5528 5542 5559 5575 5585 5593 5602 5621 5640 5682 5694 5716 5778 5775 5783 5789 5791 5770 5794 5819 5826 5827 5835 5842 5845 5852 5863